[[{"header":{"parameterUnit":"m.s-1","parameterCategory":1,"la1":30.2991,"la2":30.254,"lo1":-89.0895,"lo2":-89.0444,"dy":0.0017,"dx":0.0017,"nx":28,"ny":28,"refTime":"2025-04-07T21:00:00:Z","depth":0,"parameterNumber":2,"parameterNumberName":"U-component_of_WINDS"},"data":[0,0,0,0,0,0,0,0,0,0,0,0,0,0,0,0,0,0,0,0,0,0,0,0,0,0,0,0,0,0,0,0,0,0,0,0,0,0,0,0,0,0,0,0,0,0,0,0,0,0,0,0,0,0,0,0,0,0,1.722,1.722,0,1.721,1.721,1.721,1.717,1.717,1.7169,1.7168,1.7159,1.7159,1.716,0,0,0,0,0,0,0,0,0,0,0,0,0,1.7207,1.7207,1.722,1.722,1.722,1.721,1.721,1.721,1.7171,1.7169,1.7168,1.7167,1.7158,1.7159,1.716,0,0,0,0,0,0,0,0,0,0,0,0,0,1.7206,1.7207,1.722,1.7199,1.7197,1.721,1.721,1.7209,1.7171,1.7169,1.7168,1.7167,1.7158,1.7159,1.716,1.7192,0,0,1.7163,1.7163,0,0,0,0,0,0,0,0,1.7206,1.7207,1.7202,1.72,1.7198,1.719,1.7202,1.7204,1.7171,1.7181,1.7168,1.7166,1.717,1.717,1.7171,1.7192,1.7192,1.7163,1.7163,1.7164,1.7164,0,0,0,0,0,0,0,1.7206,1.7207,1.7216,1.7202,1.72,1.719,1.7189,1.7202,1.7183,1.718,1.7177,1.7176,1.7169,1.717,1.7171,1.7191,1.7163,1.7163,1.7164,1.7164,1.7239,1.724,0,0,0,0,0,0,1.7209,1.7207,1.7216,1.7215,1.7199,1.7192,1.719,1.7194,1.7183,1.718,1.7177,1.7174,1.7169,1.717,1.717,1.7207,1.7164,1.7164,1.7165,1.7238,1.7239,1.7241,0,0,0,0,0,0,1.7209,1.721,1.7217,1.7211,1.7211,1.7193,1.7198,1.7194,1.7196,1.7181,1.7178,1.7182,1.7168,1.7169,1.7187,1.7207,1.7165,1.7166,1.7236,1.7238,1.724,1.7283,0,0,0,0,0,0,1.7209,1.721,1.7222,1.7211,1.7211,1.7233,1.7199,1.7195,1.7197,1.7193,1.7185,1.7182,1.7167,1.7186,1.7188,1.7207,1.7166,1.7234,1.7237,1.724,1.7279,1.7286,1.7292,0,0,0,0,0,1.7208,1.7235,1.7223,1.7224,1.7225,1.7235,1.7235,1.7217,1.7199,1.7211,1.7202,1.7182,1.7204,1.7188,1.719,1.721,1.7233,1.7236,1.7239,1.7277,1.7285,1.7291,0,0,0,0,0,0,1.7248,1.7233,1.722,1.7243,1.724,1.7228,1.7242,1.7226,1.7229,1.7225,1.7203,1.7202,1.7223,1.7218,1.7201,1.7241,1.7215,1.7219,1.7243,1.7251,1.7257,1.7257,1.7167,0,0,0,0,0,1.726,1.7268,1.7254,1.7276,1.7276,1.726,1.7263,1.725,1.7246,1.7245,1.7237,1.7235,1.7241,1.7246,1.7251,1.7279,1.7276,1.7293,1.73,1.7305,1.7308,1.7323,1.733,1.7252,1.7252,1.7252,0,0,1.7284,1.7276,1.7283,1.7284,1.7281,1.729,1.7259,1.727,1.7277,1.7247,1.7263,1.7258,1.7254,1.7277,1.7287,1.7274,1.7329,1.7309,1.7313,1.7313,1.7327,1.7334,1.7341,1.7254,1.7254,1.7253,0,0,1.7332,1.7327,1.7345,1.7342,1.7337,1.7327,1.7331,1.7321,1.7316,1.7333,1.731,1.7319,1.733,1.7328,1.7329,1.7378,1.736,1.738,1.7412,1.7427,1.7433,1.7438,1.7456,1.7462,1.7384,1.7384,1.7384,0,1.7362,1.7375,1.7356,1.7369,1.7371,1.7344,1.7362,1.736,1.7358,1.7359,1.7345,1.7359,1.7355,1.7377,1.7389,1.7391,1.7395,1.7381,1.7433,1.7439,1.7443,1.746,1.7466,1.7387,1.7386,1.7386,1.7386,0,1.7413,1.7423,1.7438,1.7435,1.7439,1.7454,1.7438,1.7444,1.7431,1.7422,1.7439,1.7433,1.7437,1.7441,1.7429,1.7463,1.7455,1.7437,1.7411,1.7454,1.7468,1.7475,1.739,1.7389,1.7388,1.7388,0,0,1.7485,1.7473,1.7478,1.7477,1.747,1.7478,1.7493,1.7496,1.7501,1.7501,1.7513,1.7524,1.7508,1.7508,1.7496,1.7509,1.7548,1.7489,1.7489,1.75,1.7585,1.7598,1.7605,1.7537,1.7538,1.7539,1.7585,0,1.753,1.7554,1.7538,1.7565,1.7574,1.7549,1.7562,1.756,1.7552,1.7559,1.755,1.7558,1.7537,1.7537,1.7549,1.7541,1.7565,1.7537,1.7548,1.7548,1.7548,1.7613,1.7626,1.767,1.7591,1.7592,1.7593,0,1.7586,1.7588,1.7616,1.7608,1.7611,1.7623,1.7625,1.7631,1.7629,1.7622,1.7624,1.7608,1.7622,1.7597,1.7617,1.7599,1.7603,1.76,1.7601,1.76,1.7572,1.7614,1.7684,1.7691,1.7602,1.7601,1.76,0,1.7635,1.7645,1.7663,1.7663,1.7654,1.7663,1.766,1.7655,1.7659,1.7661,1.7663,1.7667,1.7669,1.7673,1.7659,1.7642,1.7681,1.7655,1.7676,1.7677,1.7684,1.7684,1.7756,1.7688,1.7688,1.7688,1.7688,0,1.7687,1.7705,1.7685,1.7695,1.7715,1.7697,1.7717,1.7711,1.7708,1.7718,1.7697,1.7707,1.7688,1.7696,1.7685,1.7704,1.7705,1.77,1.7697,1.7702,1.7702,1.7703,1.7699,1.769,1.7689,1.7689,1.7689,0,1.7745,1.7732,1.775,1.774,1.7738,1.7753,1.7745,1.7755,1.7747,1.7759,1.7761,1.7748,1.7756,1.7743,1.775,1.7743,1.7768,1.7761,1.7769,1.7766,1.7789,1.7787,1.7863,1.7872,1.7799,1.78,1.78,0,1.7779,1.7792,1.7784,1.7789,1.7787,1.7795,1.7798,1.7782,1.7786,1.7784,1.7795,1.7802,1.7806,1.7821,1.7812,1.7818,1.781,1.7836,1.781,1.7815,1.781,1.7809,1.781,1.7841,1.7842,1.7843,1.7843,0,1.784,1.7833,1.7838,1.7842,1.7846,1.7848,1.7849,1.7854,1.7837,1.7843,1.7851,1.7855,1.7862,1.7869,1.7873,1.787,1.7854,1.7852,1.7857,1.7861,1.7865,1.7863,1.7783,1.785,1.7849,1.7848,1.7848,1.7848,1.7886,1.7896,1.7893,1.7899,1.7898,1.79,1.7908,1.7901,1.7908,1.7912,1.7902,1.7913,1.7911,1.7914,1.7913,1.7922,1.791,1.7918,1.792,1.7922,1.7925,1.7865,1.7923,1.7923,1.7922,1.7922,1.7922,0,1.7945,1.7942,1.7948,1.795,1.7956,1.794,1.7941,1.7946,1.7956,1.7955,1.796,1.797,1.7977,1.797,1.7975,1.7984,1.7977,1.7986,1.7985,1.7984,1.7935,1.793,1.7992,1.7992,1.7992,1.7992,1.7992,1.7992,1.7977,1.7994,1.7987,1.8004,1.8,1.801,1.8012,1.8013,1.8012,1.8024,1.803,1.8025,1.8022,1.8027,1.8033,1.8031,1.8034,1.8046,1.8041,1.7995,1.7988,1.7981,1.7976,1.8047,1.8047,1.8089,1.809,1.809]},{"header":{"parameterUnit":"m.s-1","parameterCategory":1,"la1":30.2991,"la2":30.254,"lo1":-89.0895,"lo2":-89.0444,"dy":0.0017,"dx":0.0017,"nx":28,"ny":28,"refTime":"2025-04-07T21:00:00:Z","depth":0,"parameterNumber":3,"parameterNumberName":"V-component_of_WINDS"},"data":[0,0,0,0,0,0,0,0,0,0,0,0,0,0,0,0,0,0,0,0,0,0,0,0,0,0,0,0,0,0,0,0,0,0,0,0,0,0,0,0,0,0,0,0,0,0,0,0,0,0,0,0,0,0,0,0,0,0,-4.9179,-4.9181,0,-4.942,-4.9423,-4.9425,-4.94,-4.9396,-4.9392,-4.9388,-4.9636,-4.9646,-4.9656,0,0,0,0,0,0,0,0,0,0,0,0,0,-4.8696,-4.8705,-4.9179,-4.9182,-4.9185,-4.942,-4.9423,-4.9426,-4.94,-4.9396,-4.9391,-4.9387,-4.9633,-4.9644,-4.9657,0,0,0,0,0,0,0,0,0,0,0,0,0,-4.8919,-4.8708,-4.9178,-4.92,-4.9204,-4.9419,-4.9423,-4.9427,-4.9401,-4.9396,-4.939,-4.9385,-4.9629,-4.9643,-4.9658,-4.9866,0,0,-4.9705,-4.9711,0,0,0,0,0,0,0,0,-4.8906,-4.8936,-4.9194,-4.9199,-4.9204,-4.9374,-4.9343,-4.9574,-4.9403,-4.9327,-4.9388,-4.9382,-4.9553,-4.9574,-4.9632,-4.9878,-4.9889,-4.9706,-4.9715,-4.9722,-4.9726,0,0,0,0,0,0,0,-4.8891,-4.8926,-4.9274,-4.9198,-4.9204,-4.9198,-4.9223,-4.9387,-4.9469,-4.9333,-4.9332,-4.936,-4.9555,-4.9618,-4.9638,-4.9892,-4.9706,-4.9719,-4.9729,-4.9735,-5.0322,-5.0328,0,0,0,0,0,0,-4.887,-4.8913,-4.9266,-4.9281,-4.9038,-4.9211,-4.924,-4.9325,-4.9467,-4.9483,-4.9365,-4.9358,-4.9594,-4.962,-4.9646,-4.9901,-4.9722,-4.9736,-4.9745,-5.0315,-5.0323,-5.033,0,0,0,0,0,0,-4.886,-4.8902,-4.9257,-4.9097,-4.9142,-4.9226,-4.9322,-4.9333,-4.9395,-4.9492,-4.9506,-4.9414,-4.9591,-4.9625,-4.9812,-4.9909,-4.9743,-4.9757,-5.0308,-5.0318,-5.0327,-5.041,0,0,0,0,0,0,-4.8846,-4.8898,-4.8978,-4.9099,-4.915,-4.9419,-4.9328,-4.9342,-4.9422,-4.9415,-4.9541,-4.9557,-4.9589,-4.979,-4.9827,-4.9927,-4.9769,-5.03,-5.0312,-5.0324,-5.0399,-5.0421,-5.044,0,0,0,0,0,-4.8829,-4.8992,-4.8982,-4.9025,-4.9252,-4.9424,-4.9454,-4.9488,-4.943,-4.9511,-4.9573,-4.9553,-4.9892,-4.9809,-4.9851,-4.9957,-5.0294,-5.0309,-5.0323,-5.039,-5.0417,-5.044,0,0,0,0,0,0,-4.888,-4.9008,-4.8999,-4.9206,-4.9304,-4.942,-4.9523,-4.9515,-4.9633,-4.9622,-4.9659,-4.9687,-4.9876,-4.9935,-4.9841,-5.0166,-5.0085,-5.0108,-5.0121,-5.0148,-5.0168,-5.0151,-4.9781,0,0,0,0,0,-4.8915,-4.9045,-4.9149,-4.9322,-4.9372,-4.9439,-4.9515,-4.9533,-4.9636,-4.9678,-4.9753,-4.9855,-4.9984,-5.0069,-5.0193,-5.0406,-5.0434,-5.05,-5.052,-5.0537,-5.0558,-5.0676,-5.0706,-5.0378,-5.0378,-5.0378,0,0,-4.899,-4.9076,-4.9155,-4.9334,-4.9413,-4.9546,-4.9474,-4.9618,-4.9718,-4.97,-4.9882,-4.9941,-5.0056,-5.0258,-5.035,-5.0312,-5.0654,-5.0555,-5.0568,-5.058,-5.0694,-5.0725,-5.0752,-5.0388,-5.0386,-5.0385,0,0,-4.9195,-4.9272,-4.9425,-4.9505,-4.9624,-4.9668,-4.9704,-4.9821,-4.986,-5.0043,-5.0032,-5.0151,-5.0373,-5.0456,-5.0527,-5.0763,-5.0749,-5.0802,-5.0911,-5.1025,-5.1051,-5.1074,-5.116,-5.119,-5.0822,-5.0822,-5.0822,0,-4.9273,-4.9473,-4.9504,-4.965,-4.973,-4.9719,-4.9874,-4.995,-5.0105,-5.016,-5.0115,-5.0394,-5.0471,-5.0692,-5.0749,-5.0807,-5.085,-5.0789,-5.1045,-5.1068,-5.109,-5.1172,-5.1204,-5.0828,-5.0827,-5.0826,-5.0826,0,-4.9563,-4.9702,-4.9811,-4.9961,-5.0052,-5.0202,-5.0256,-5.0345,-5.0354,-5.0402,-5.0589,-5.0681,-5.0824,-5.0877,-5.0888,-5.1101,-5.1073,-5.1036,-5.0956,-5.1127,-5.1205,-5.1236,-5.0836,-5.0834,-5.0832,-5.0831,0,0,-4.9809,-4.9973,-5.0013,-5.0081,-5.0211,-5.032,-5.0469,-5.0608,-5.0685,-5.0791,-5.0917,-5.1105,-5.1072,-5.1153,-5.1172,-5.1272,-5.1455,-5.1223,-5.1227,-5.1264,-5.1696,-5.1724,-5.176,-5.1445,-5.1451,-5.1456,-5.1687,0,-5.0028,-5.0292,-5.0324,-5.0559,-5.0689,-5.068,-5.081,-5.0905,-5.0954,-5.107,-5.1124,-5.1257,-5.1202,-5.1251,-5.135,-5.1412,-5.1542,-5.1395,-5.1565,-5.157,-5.1538,-5.1801,-5.1831,-5.2044,-5.1717,-5.1722,-5.1726,0,-5.0319,-5.0433,-5.0681,-5.0795,-5.085,-5.0966,-5.1097,-5.1209,-5.1316,-5.1344,-5.1434,-5.1441,-5.1595,-5.1507,-5.1721,-5.162,-5.1691,-5.1732,-5.1741,-5.1759,-5.166,-5.1828,-5.2113,-5.2146,-5.1774,-5.177,-5.1767,0,-5.0475,-5.0691,-5.0868,-5.0925,-5.1062,-5.1144,-5.1204,-5.1305,-5.1388,-5.1502,-5.1556,-5.1686,-5.1758,-5.1859,-5.1901,-5.1832,-5.2113,-5.2027,-5.2141,-5.2141,-5.2202,-5.2198,-5.2505,-5.2245,-5.2245,-5.2244,-5.2243,0,-5.0717,-5.087,-5.094,-5.1049,-5.1219,-5.1254,-5.1422,-5.1479,-5.157,-5.169,-5.1689,-5.1802,-5.1849,-5.1969,-5.2002,-5.2175,-5.2207,-5.2235,-5.2242,-5.2237,-5.2233,-5.2285,-5.2272,-5.2252,-5.2251,-5.2249,-5.2247,0,-5.0922,-5.0974,-5.1166,-5.1279,-5.1311,-5.1432,-5.1529,-5.1634,-5.1681,-5.1833,-5.1871,-5.1945,-5.2086,-5.2137,-5.2309,-5.2331,-5.2532,-5.2526,-5.2496,-5.2498,-5.261,-5.26,-5.2962,-5.3012,-5.2718,-5.272,-5.2723,0,-5.1074,-5.1191,-5.1316,-5.1396,-5.146,-5.1589,-5.1673,-5.1712,-5.1799,-5.1929,-5.2019,-5.216,-5.2274,-5.2501,-5.257,-5.2701,-5.27,-5.2817,-5.272,-5.271,-5.2704,-5.2697,-5.2709,-5.2836,-5.2839,-5.2842,-5.2844,0,-5.1338,-5.1359,-5.1479,-5.161,-5.1709,-5.1814,-5.1915,-5.1981,-5.2035,-5.2133,-5.2277,-5.2366,-5.2541,-5.2681,-5.2816,-5.2878,-5.2871,-5.2874,-5.2907,-5.2904,-5.2882,-5.2897,-5.2548,-5.2866,-5.2864,-5.2862,-5.2861,-5.286,-5.1523,-5.1627,-5.1731,-5.1866,-5.1946,-5.204,-5.2145,-5.2205,-5.2326,-5.2472,-5.2487,-5.2643,-5.2747,-5.2927,-5.2995,-5.3118,-5.3085,-5.3134,-5.3146,-5.3158,-5.3167,-5.2861,-5.3142,-5.3141,-5.3141,-5.314,-5.314,0,-5.1789,-5.1856,-5.1979,-5.212,-5.2226,-5.2209,-5.232,-5.241,-5.2547,-5.2644,-5.2757,-5.2923,-5.3059,-5.3138,-5.3274,-5.3357,-5.3357,-5.3391,-5.3387,-5.3401,-5.3188,-5.3146,-5.3389,-5.3389,-5.3389,-5.3389,-5.3389,-5.3389,-5.194,-5.2116,-5.2148,-5.2363,-5.2429,-5.2581,-5.2646,-5.2734,-5.2811,-5.2997,-5.311,-5.316,-5.3251,-5.3393,-5.3517,-5.3536,-5.3587,-5.3625,-5.3642,-5.3442,-5.3416,-5.3392,-5.3353,-5.3635,-5.3636,-5.3846,-5.3848,-5.3849]}]]